User: anonymous   Login
Location: Unspecified
(0.0000°N, 0.0000°E)
Time: 05:47:53
(UTC+00:00)
Language:

CBERS-1 - Orbit

View from above orbital plane
View from above orbital plane
View from above satellite
View from above satellite

Ground track
Ground track

The orbit data is extracted from the following two-line orbital elements,

1 25940U 99057A   24114.56627306  .00000857  00000-0  30957-3 0  9994
2 25940  98.8019  92.8933 0005564 141.4532 218.7051 14.36195329284855
Epoch (UTC): 23 April 2024 13:35:25
Eccentricity: 0.0005564
inclination: 98.8019°
perigee height: 767 km
apogee height: 775 km
right ascension of ascending node: 92.8933°
argument of perigee: 141.4532°
revolutions per day: 14.36195329
mean anomaly at epoch: 218.7051°
orbit number at epoch: 28485

The dashed part of the orbit path shows where the satellite is in the earth's shadow,  

DLR